This is the latest recevied weather packets stored in our database for station/object KI4NG. If no packets are shown the sender has not sent any weather packets the latest 10 day(s).
| Time | Temp. | Humidity | Pressure | Rain* | Wind** | Luminosity | Snow |
|---|---|---|---|---|---|---|---|
| 1777846795 | 17.78° C | 45% | 1017.4 hPa | 0 mm | - | 295 W/m² | - |
| 1777846493 | 17.78° C | 43% | 1017.3 hPa | 0 mm | - | 321 W/m² | - |
| 1777846190 | 17.78° C | 44% | 1017.5 hPa | 0 mm | - | 347 W/m² | - |
| 1777845886 | 17.78° C | 46% | 1017.5 hPa | 0 mm | - | 357 W/m² | - |
| 1777845583 | 17.78° C | 45% | 1017.3 hPa | 0 mm | - | 350 W/m² | - |
| 1777845280 | 18.33° C | 44% | 1017.4 hPa | 0 mm | - | 379 W/m² | - |
| 1777844978 | 17.78° C | 47% | 1017.3 hPa | 0 mm | - | 391 W/m² | - |
| 1777844675 | 17.22° C | 44% | 1017.5 hPa | 0 mm | - | 424 W/m² | - |
| 1777844372 | 17.78° C | 43% | 1017.5 hPa | 0 mm | - | 442 W/m² | - |
| 1777844071 | 17.78° C | 43% | 1017.5 hPa | 0 mm | - | 449 W/m² | - |
| 1777843766 | 17.78° C | 43% | 1017.6 hPa | 0 mm | - | 433 W/m² | - |
| 1777843464 | 17.78° C | 44% | 1017.7 hPa | 0 mm | - | 454 W/m² | - |
| 1777843161 | 17.78° C | 43% | 1017.6 hPa | 0 mm | - | 463 W/m² | - |
| 1777842858 | 17.22° C | 44% | 1017.9 hPa | 0 mm | - | 483 W/m² | - |
| 1777842553 | 18.33° C | 43% | 1017.8 hPa | 0 mm | - | 494 W/m² | - |
| 1777842250 | 17.78° C | 47% | 1017.9 hPa | 0 mm | - | 498 W/m² | - |
| 1777841945 | 17.22° C | 46% | 1017.8 hPa | 0 mm | - | 512 W/m² | - |
| 1777841643 | 17.78° C | 49% | 1018 hPa | 0 mm | - | 454 W/m² | - |
| 1777841339 | 17.78° C | 46% | 1018.1 hPa | 0 mm | - | 364 W/m² | - |
| 1777841035 | 17.22° C | 44% | 1018.1 hPa | 0 mm | - | 387 W/m² | - |
| 1777840733 | 16.67° C | 43% | 1018 hPa | 0 mm | - | 505 W/m² | - |
| 1777840430 | 17.22° C | 44% | 1018.2 hPa | 0 mm | - | 534 W/m² | - |
| 1777840127 | 17.22° C | 45% | 1018.2 hPa | 0 mm | - | 545 W/m² | - |
| 1777839825 | 16.67° C | 45% | 1018.3 hPa | 0 mm | - | 575 W/m² | - |
| 1777839524 | 16.67° C | 44% | 1018.3 hPa | 0 mm | - | 569 W/m² | - |
* Rain latest hour (hover to see other rain measurements)
** Current wind speed in m/s (hover to see current wind gust speed)